Time,TemperatureF,DewpointF,PressureIn,WindDirection,WindDirectionDegrees,WindSpeedMPH,WindSpeedGustMPH,Humidity,HourlyPrecipIn,Conditions,Clouds,dailyrainin,SolarRadiationWatts/m^2,SoftwareType,DateUTC
2013-03-10 00:11:00,11.0,7.0,-100.00,NNE,16,1.0,3.0,83,0.00,,,0.00,0.000000,,2013-03-10 07:11:00,
2013-03-10 00:21:00,11.0,7.0,-100.00,NNE,16,1.0,3.0,83,0.00,,,0.00,0.000000,,2013-03-10 07:21:00,
2013-03-10 00:31:00,11.0,7.0,-100.00,NNE,16,1.0,3.0,83,0.00,,,0.00,0.000000,,2013-03-10 07:31:00,
2013-03-10 00:41:00,11.0,7.0,-100.00,NNE,16,1.0,3.0,83,0.00,,,0.00,0.000000,,2013-03-10 07:41:00,
2013-03-10 01:11:00,9.0,5.0,-100.00,NNE,16,0.0,3.0,85,0.00,,,-99.99,0.000000,,2013-03-10 08:11:00,
2013-03-10 01:21:00,9.0,5.0,-100.00,NNE,16,0.0,3.0,85,0.00,,,-99.99,0.000000,,2013-03-10 08:21:00,
2013-03-10 01:31:00,9.0,5.0,-100.00,NNE,16,0.0,3.0,85,0.00,,,-99.99,0.000000,,2013-03-10 08:31:00,
2013-03-10 01:42:00,9.0,5.0,-100.00,NNE,16,0.0,3.0,85,0.00,,,-99.99,0.000000,,2013-03-10 08:42:00,
2013-03-10 03:11:00,7.0,3.0,-100.00,North,355,0.0,2.0,85,0.00,,,0.00,0.000000,,2013-03-10 09:11:00,
2013-03-10 03:21:00,7.0,3.0,-100.00,North,355,0.0,2.0,85,0.00,,,0.00,0.000000,,2013-03-10 09:21:00,
2013-03-10 03:31:00,7.0,3.0,-100.00,North,355,0.0,2.0,85,0.00,,,0.00,0.000000,,2013-03-10 09:31:00,
2013-03-10 03:41:00,7.0,3.0,-100.00,North,355,0.0,2.0,85,0.00,,,0.00,0.000000,,2013-03-10 09:41:00,
2013-03-10 04:11:00,6.0,3.0,-100.00,North,7,0.0,2.0,86,0.00,,,0.00,0.000000,,2013-03-10 10:11:00,
2013-03-10 04:21:00,6.0,3.0,-100.00,North,7,0.0,2.0,86,0.00,,,0.00,0.000000,,2013-03-10 10:21:00,
2013-03-10 04:32:00,6.0,3.0,-100.00,North,7,0.0,2.0,86,0.00,,,0.00,0.000000,,2013-03-10 10:32:00,
2013-03-10 04:41:00,6.0,3.0,-100.00,North,7,0.0,2.0,86,0.00,,,0.00,0.000000,,2013-03-10 10:41:00,
2013-03-10 05:11:00,5.0,2.0,-100.00,NNW,344,1.0,2.0,85,0.00,,,0.00,0.000000,,2013-03-10 11:11:00,
2013-03-10 05:21:00,5.0,2.0,-100.00,NNW,344,1.0,2.0,85,0.00,,,0.00,0.000000,,2013-03-10 11:21:00,
2013-03-10 05:31:00,5.0,2.0,-100.00,NNW,344,1.0,2.0,85,0.00,,,0.00,0.000000,,2013-03-10 11:31:00,
2013-03-10 05:42:00,5.0,2.0,-100.00,NNW,344,1.0,2.0,85,0.00,,,0.00,0.000000,,2013-03-10 11:42:00,
2013-03-10 08:11:00,1.0,-3.0,-100.00,North,358,1.0,3.0,82,-99.99,,,0.00,1.000000,,2013-03-10 14:11:00,
2013-03-10 08:21:00,1.0,-3.0,-100.00,North,358,1.0,3.0,82,-99.99,,,0.00,1.000000,,2013-03-10 14:21:00,
2013-03-10 08:32:00,1.0,-3.0,-100.00,North,358,1.0,3.0,82,-99.99,,,0.00,1.000000,,2013-03-10 14:32:00,
2013-03-10 08:41:00,1.0,-3.0,-100.00,North,358,1.0,3.0,82,-99.99,,,0.00,1.000000,,2013-03-10 14:41:00,
2013-03-10 09:11:00,4.0,0.0,-100.00,NNE,19,0.0,2.0,83,0.00,,,0.00,15.000000,,2013-03-10 15:11:00,
2013-03-10 09:21:00,4.0,0.0,-100.00,NNE,19,0.0,2.0,83,0.00,,,0.00,15.000000,,2013-03-10 15:21:00,
2013-03-10 09:31:00,4.0,0.0,-100.00,NNE,19,0.0,2.0,83,0.00,,,0.00,15.000000,,2013-03-10 15:31:00,
2013-03-10 09:41:00,4.0,0.0,-100.00,NNE,19,0.0,2.0,83,0.00,,,0.00,15.000000,,2013-03-10 15:41:00,
2013-03-10 10:11:00,21.0,13.0,-100.00,ESE,106,1.0,3.0,72,0.00,,,0.00,102.000000,,2013-03-10 16:11:00,
2013-03-10 10:21:00,21.0,13.0,-100.00,ESE,106,1.0,3.0,72,0.00,,,0.00,102.000000,,2013-03-10 16:21:00,
2013-03-10 10:41:00,21.0,13.0,-100.00,ESE,106,1.0,3.0,72,0.00,,,0.00,102.000000,,2013-03-10 16:41:00,
2013-03-10 12:11:00,39.0,18.0,-100.00,WSW,243,3.0,7.0,42,-99.99,,,0.00,502.000000,,2013-03-10 18:11:00,
2013-03-10 13:11:00,39.0,18.0,-100.00,SW,222,4.0,9.0,43,-99.99,,,0.00,649.000000,,2013-03-10 19:11:00,
2013-03-10 13:21:00,39.0,18.0,-100.00,SW,222,4.0,9.0,43,-99.99,,,0.00,649.000000,,2013-03-10 19:21:00,
2013-03-10 13:31:00,39.0,18.0,-100.00,SW,222,4.0,9.0,43,-99.99,,,0.00,649.000000,,2013-03-10 19:31:00,
2013-03-10 13:41:00,39.0,18.0,-100.00,SW,222,4.0,9.0,43,-99.99,,,0.00,649.000000,,2013-03-10 19:41:00,
2013-03-10 14:12:00,38.0,18.0,-100.00,WSW,250,4.0,8.0,43,0.00,,,0.00,558.000000,,2013-03-10 20:12:00,
2013-03-10 14:22:00,38.0,18.0,-100.00,WSW,250,4.0,8.0,43,0.00,,,0.00,558.000000,,2013-03-10 20:22:00,
2013-03-10 14:32:00,38.0,18.0,-100.00,WSW,250,4.0,8.0,43,0.00,,,0.00,558.000000,,2013-03-10 20:32:00,
2013-03-10 14:42:00,38.0,18.0,-100.00,WSW,250,4.0,8.0,43,0.00,,,0.00,558.000000,,2013-03-10 20:42:00,
2013-03-10 15:12:00,39.0,19.0,-100.00,WSW,240,4.0,11.0,45,0.00,,,-99.99,559.000000,,2013-03-10 21:12:00,
2013-03-10 15:22:00,39.0,19.0,-100.00,WSW,240,4.0,11.0,45,0.00,,,-99.99,559.000000,,2013-03-10 21:22:00,
2013-03-10 15:32:00,39.0,19.0,-100.00,WSW,240,4.0,11.0,45,0.00,,,-99.99,559.000000,,2013-03-10 21:32:00,
2013-03-10 15:42:00,39.0,19.0,-100.00,WSW,240,4.0,11.0,45,0.00,,,-99.99,559.000000,,2013-03-10 21:42:00,
2013-03-10 16:12:00,40.0,22.0,-100.00,SW,214,4.0,10.0,48,0.00,,,0.00,572.000000,,2013-03-10 22:12:00,
2013-03-10 16:22:00,40.0,22.0,-100.00,SW,214,4.0,10.0,48,0.00,,,0.00,572.000000,,2013-03-10 22:22:00,
2013-03-10 16:32:00,40.0,22.0,-100.00,SW,214,4.0,10.0,48,0.00,,,0.00,572.000000,,2013-03-10 22:32:00,
2013-03-10 16:42:00,40.0,22.0,-100.00,SW,214,4.0,10.0,48,0.00,,,0.00,572.000000,,2013-03-10 22:42:00,
2013-03-10 17:12:00,34.0,20.0,-100.00,WSW,244,4.0,9.0,55,0.00,,,0.00,409.000000,,2013-03-10 23:12:00,
2013-03-10 17:22:00,34.0,20.0,-100.00,WSW,244,4.0,9.0,55,0.00,,,0.00,409.000000,,2013-03-10 23:22:00,
2013-03-10 17:42:00,34.0,20.0,-100.00,WSW,244,4.0,9.0,55,0.00,,,0.00,409.000000,,2013-03-10 23:42:00,
2013-03-10 18:12:00,30.0,19.0,-100.00,West,263,3.0,8.0,63,0.00,,,0.00,144.000000,,2013-03-11 00:12:00,
2013-03-10 18:22:00,30.0,19.0,-100.00,West,263,3.0,8.0,63,0.00,,,0.00,144.000000,,2013-03-11 00:22:00,
2013-03-10 18:32:00,30.0,19.0,-100.00,West,263,3.0,8.0,63,0.00,,,0.00,144.000000,,2013-03-11 00:32:00,
2013-03-10 18:42:00,30.0,19.0,-100.00,West,263,3.0,8.0,63,0.00,,,0.00,144.000000,,2013-03-11 00:42:00,
2013-03-10 19:12:00,29.0,20.0,-100.00,WSW,244,0.0,5.0,68,0.00,,,0.00,56.000000,,2013-03-11 01:12:00,
2013-03-10 19:22:00,29.0,20.0,-100.00,WSW,244,0.0,5.0,68,0.00,,,0.00,56.000000,,2013-03-11 01:22:00,
2013-03-10 19:32:00,29.0,20.0,-100.00,WSW,244,0.0,5.0,68,0.00,,,0.00,56.000000,,2013-03-11 01:32:00,
2013-03-10 19:42:00,29.0,20.0,-100.00,WSW,244,0.0,5.0,68,0.00,,,0.00,56.000000,,2013-03-11 01:42:00,
2013-03-10 20:12:00,27.0,20.0,-100.00,SW,234,0.0,0.0,76,0.00,,,0.00,8.000000,,2013-03-11 02:12:00,
2013-03-10 20:22:00,27.0,20.0,-100.00,SW,234,0.0,0.0,76,0.00,,,0.00,8.000000,,2013-03-11 02:22:00,
2013-03-10 20:32:00,27.0,20.0,-100.00,SW,234,0.0,0.0,76,0.00,,,0.00,8.000000,,2013-03-11 02:32:00,
2013-03-10 20:42:00,27.0,20.0,-100.00,SW,234,0.0,0.0,76,0.00,,,0.00,8.000000,,2013-03-11 02:42:00,
2013-03-10 21:12:00,26.0,20.0,-100.00,North,0,0.0,0.0,77,0.00,,,0.00,0.000000,,2013-03-11 03:12:00,
2013-03-10 21:22:00,26.0,20.0,-100.00,North,0,0.0,0.0,77,0.00,,,0.00,0.000000,,2013-03-11 03:22:00,
2013-03-10 21:32:00,26.0,20.0,-100.00,North,0,0.0,0.0,77,0.00,,,0.00,0.000000,,2013-03-11 03:32:00,
2013-03-10 21:42:00,26.0,20.0,-100.00,North,0,0.0,0.0,77,0.00,,,0.00,0.000000,,2013-03-11 03:42:00,
2013-03-10 22:12:00,27.0,21.0,-100.00,NNE,22,0.0,2.0,77,0.00,,,0.00,0.000000,,2013-03-11 04:12:00,
2013-03-10 22:22:00,27.0,21.0,-100.00,NNE,22,0.0,2.0,77,0.00,,,0.00,0.000000,,2013-03-11 04:22:00,
2013-03-10 22:32:00,27.0,21.0,-100.00,NNE,22,0.0,2.0,77,0.00,,,0.00,0.000000,,2013-03-11 04:32:00,
2013-03-10 22:42:00,27.0,21.0,-100.00,NNE,22,0.0,2.0,77,0.00,,,0.00,0.000000,,2013-03-11 04:42:00,
2013-03-10 23:12:00,27.0,20.0,-100.00,NNE,14,0.0,2.0,76,0.00,,,0.00,0.000000,,2013-03-11 05:12:00,
2013-03-10 23:22:00,27.0,20.0,-100.00,NNE,14,0.0,2.0,76,0.00,,,0.00,0.000000,,2013-03-11 05:22:00,
2013-03-10 23:32:00,27.0,20.0,-100.00,NNE,14,0.0,2.0,76,0.00,,,0.00,0.000000,,2013-03-11 05:32:00,
2013-03-10 23:42:00,27.0,20.0,-100.00,NNE,14,0.0,2.0,76,0.00,,,0.00,0.000000,,2013-03-11 05:42:00,